Location: Ellingshausen
(50.5460°N, 10.4723°E)
Time: 22:15:14
(UTC+00:00)

Cosmos 2341 Rocket - Pass Details

Date: 18 January 2026
Orbit: 967 x 1004 km, 82.9° (Epoch: 7 February)

Event Time Altitude Azimuth Distance (km) Brightness Sun altitude
Rises 06:20:53 0° 204° (SSW) 3,718 7.0 -7.8°
Reaches altitude 10° 06:23:29 10° 209° (SSW) 2,773 6.3 -7.4°
Maximum altitude 06:29:43 53° 286° (WNW) 1,214 4.2 -6.5°
Drops below altitude 10° 06:35:58 10° 3° (N) 2,782 6.2 -5.6°
Sets 06:38:35 0° 8° (N) 3,732 6.9 -5.2°
